SKYNET 5D

Last updated on Tue Oct 08 2024 00:02:39 GMT+0000 (Coordinated Universal Time)

1 39034U 12075A 24281.20465913 .00000110 00000+0 00000+0 0 9991 2 39034 0.0718 0.8525 0003675 191.6307 310.2782 1.00271394 42966
UTC large
Height (km)
Speed (km/s)
/
Latitude / Longitude
Inclination (degrees)
Orbital Period (minutes)
Azimuth
Elevation
Range (km)
Doppler Factor

Next 0 passes for location: London (51.5072 / 0.1276)

Sorry there are no passes over London.